Belfast International Airport

Jump to: basic info | weather | frequencies | runways | comments

Related pages: nearby airports | nearby navaids | notams | map

Basic information (top)

Codes: BFS EGAA
Location: lon 54.657501, lat -6.215830, elev 268 ft / 82 m msl
Status: large_airport
Scheduled airline service: yes
Links: Wikipedia Mobile

Weather (top)

Current conditions (rec'd 2014/09/16 22:50Z):

EGAA 162250Z 08004KT 3500 BR NSC 12/12 Q1016

Airport forecast (rec'd 2014/09/16 18:15Z):

TAF TAF EGAA 161657Z 1618/1718 07005KT 9000 FEW020 PROB30 
      TEMPO 1618/1621 CAVOK PROB40 1623/1709 3000 BR BKN003 
      BECMG 1709/1712 9999

Frequencies (top)

Verify before use: may be inaccurate or out of date.

APP: 128.5 MHz (APP)
ATIS: 128.2 MHz (ATIS)
GND: 121.75 MHz (GND)
ILS 17: 110.9 MHz ()
ILS 25: 109.9 MHz ()
OPS: 26.48 MHz (OPS)
RDR: 120.9 MHz (DIRECTOR)
TWR: 118.3 MHz (TWR)

Runways (top)

07/25: 9,121 x 148 ft (2,780 x 45 m) — paved — lighted

17/35: 6,401 x 148 ft (1,951 x 45 m) — paved — lighted — threshold 17 displaced 525 ft (160 m) — threshold 35 displaced 502 ft (153 m)

Latest comments (top)

No comments yet for Belfast International Airport

More... (top)

See also NOTAMs and nearby airports and navaids, or visit the Belfast International Airport page at the main OurAirports website..